Location: *
(46.3500°N, 10.9000°E)
Time: 00:23:21
(UTC+00:00)

Vanguard 2 - Pass Details

Date: 24 April 2021
Orbit: 552 x 2938 km, 32.9° (Epoch: 12 May)

Event Time Altitude Azimuth Distance (km) Brightness Sun altitude
Rises 15:40:08 0° 271° (W) 5,997 13.4 25.7°
Reaches altitude 10° 15:45:43 10° 259° (W) 4,551 13.4 24.7°
Maximum altitude 15:53:45 21° 217° (SW) 2,986 11.3 23.3°
Drops below altitude 10° 15:59:36 10° 170° (S) 3,179 10.7 22.3°
Sets 16:02:40 0° 154° (SSE) 3,811 10.9 21.8°
